User: anonymous   Login
Location: Unspecified
(0.0000°N, 0.0000°E)
Time: 08:57:30
(UTC+00:00)
Language:

Chunghua 1 - Orbit

View from above orbital plane
View from above orbital plane
View from above satellite
View from above satellite

Ground track
Ground track

The orbit data is extracted from the following two-line orbital elements,

1 25616U 99002A   19051.90579905 +.00001784 +00000-0 +63213-4 0  9999
2 25616 034.9335 215.8448 0024215 307.5180 052.3335 15.28632852103095
Epoch (UTC): 20 February 2019 21:44:21
Eccentricity: 0.0024215
inclination: 34.9335°
perigee height: 463 km
apogee height: 496 km
right ascension of ascending node: 215.8448°
argument of perigee: 307.5180°
revolutions per day: 15.28632852
mean anomaly at epoch: 52.3335°
orbit number at epoch: 10309

The dashed part of the orbit path shows where the satellite is in the earth's shadow,  

DLR